Regional Weather Roundup
Issued by NWS

Home | Current Version | Previous Version | Text Only | Print | Product List | Glossary On
Versions: 1 2 3 4 5 6 7 8 9 10 11 12 13 14 15 16 17 18 19 20 21 22 23 24 25 26 27 28 29 30 31 32 33 34 35 36 37 38 39 40 41 42 43 44 45 46 47 48 49 50
000
ASUS45 KREV 180210
RWRNV
NEVADA REGIONAL WEATHER ROUNDUP
NATIONAL WEATHER SERVICE RENO NV
600 PM PST WED DEC 17 2014

NOTE: "FAIR" INDICATES FEW OR NO CLOUDS BELOW 12,000 FEET WITH NO
SIGNIFICANT WEATHER AND/OR OBSTRUCTIONS TO VISIBILITY.

NVZ001-003-004-180300-
WESTERN NEVADA

CITY           SKY/WX    TMP DP  RH WIND       PRES   REMARKS
RENO           CLOUDY    43  29  57 VRB5      29.98R
CARSON CITY    CLOUDY    43  27  52 W6        29.99R
MINDEN         FAIR      39  23  52 CALM      30.00
SLIDE MTN        N/A     21  19  93 SW20        N/A
PYRAMID LAKE     N/A     45 N/A N/A W3          N/A
FALLON         CLOUDY    45  27  49 NE3       29.97R
LOVELOCK       CLOUDY    43  32  65 N5        29.98R
HAWTHORNE      CLEAR     45  32  61 E7        29.99R
$$

NVZ002-CAZ072-073-180300-
NORTHERN AND CENTRAL SIERRA

CITY           SKY/WX    TMP DP  RH WIND       PRES   REMARKS
S. LAKE TAHOE  CLOUDY    35  23  61 S6        29.99R
TRUCKEE        CLOUDY    32  28  86 CALM      29.99S
SQUAW VLY 8000   N/A     27  28 100 CALM        N/A
SUSANVILLE     CLOUDY    39  34  81 W3        29.98R
BLUE CANYON    SNOW      32  30  92 S8        30.03R VSB 1/4
MAMMOTH LAKES  CLOUDY    27  23  86 CALM        N/A
BRIDGEPORT     FAIR      31  17  56 CALM      29.97R
$$

NVZ030-031-036-180300-
NORTHERN NEVADA

CITY           SKY/WX    TMP DP  RH WIND       PRES   REMARKS
ELKO           CLOUDY    27  26  96 CALM      30.02R FOG
WINNEMUCCA     MOCLDY    34  30  85 SW5       29.99R
WENDOVER       CLOUDY    34  27  75 CALM      30.03R
$$

NVZ035-037-180300-
CENTRAL NEVADA

CITY           SKY/WX    TMP DP  RH WIND       PRES   REMARKS
ELY            CLOUDY    33  22  63 S3        30.01R
EUREKA           N/A     34  27  75 SW5       30.00R
$$

NVZ013-014-180300-
SOUTH CENTRAL NEVADA

CITY           SKY/WX    TMP DP  RH WIND       PRES   REMARKS
TONOPAH        CLOUDY    36  31  82 S5        30.02R
$$

NVZ017-020-022-180300-
SOUTHERN NEVADA

CITY           SKY/WX    TMP DP  RH WIND       PRES   REMARKS
LAS VEGAS      MOCLDY    51  43  74 SE3       30.01R
N. LAS VEGAS   CLOUDY    51  41  68 SE6       30.04R
NELLIS AFB     CLOUDY    51  44  76 NE6       30.05R
HENDERSON      MOCLDY    50  41  71 NW3       30.06R
MERCURY        CLOUDY    45  40  82 CALM      30.04R
$$


USA.gov is the U.S. government's official web portal to all federal, state and local government web resources and services.